Regional Weather Roundup
Issued by NWS Upton, NY

Current Version | Previous Version | Graphics & Text | Print | Product List | Glossary Off
Versions: 1 2 3 4 5 6 7 8 9 10 11 12 13 14 15 16 17 18 19 20 21 22 23 24 25 26 27

000
ASUS41 KOKX 030908
RWROKX

REGIONAL WEATHER ROUNDUP
NATIONAL WEATHER SERVICE NEW YORK NY
400 AM EST SAT DEC 03 2016

NOTE: "FAIR" INDICATES FEW OR NO CLOUDS BELOW 12,000 FEET WITH NO
SIGNIFICANT WEATHER AND/OR OBSTRUCTIONS TO VISIBILITY.

NYZ071-072-176-178-NJZ106-104-031000-
NEW YORK CITY METRO AREA

CITY           SKY/WX    TMP DP  RH WIND       PRES   REMARKS
Central Park   PTCLDY    43  27  53 W14G24    29.95F
Wall St Helipt CLOUDY    44  30  57 VRB3      29.95S
Bronx Bot Gard NOT AVBL
LaGuardia APRT PTCLDY    45  29  53 NW16G24   29.93S
Kennedy INTL   PTCLDY    44  30  57 NW22G28   29.93F
Breezy Point     N/A     43 N/A N/A W13G20      N/A
Newark/Liberty MOCLDY    42  31  64 W10       29.95S
Teterboro      CLEAR     42  27  55 NW12      29.93F
$$

NYZ177-179-078>081-031000-
LONG ISLAND NEW YORK

CITY           SKY/WX    TMP DP  RH WIND       PRES   REMARKS
Jones Beach      N/A     43 N/A N/A NW16        N/A
Matinecock PT    N/A     43 N/A N/A W22G28      N/A
Farmingdale    NOT AVBL
MacArthur/ISP  CLEAR     41  28  60 W14       29.89
Shirley        PTCLDY    42  28  57 W13G22    29.89
Westhampton    NOT AVBL
Southampton    NOT AVBL
Bridgehampton  NOT AVBL
East Hampton   CLOUDY    42  29  59 NW10G22   29.86S
Montauk          N/A     44  31  60 W16G24    29.86R
$$

NYZ052-065-067-031000-
HUDSON VALLEY

CITY           SKY/WX    TMP DP  RH WIND       PRES   REMARKS
White Plains   MOCLDY    40  27  59 W12G25    29.89  WCI  33
Newburgh       MOCLDY    39  30  70 W14G23    29.90S WCI  31
Montgomery     CLOUDY    40  28  62 W12G20    29.90S WCI  33
Poughkeepsie   NOT AVBL
Albany         CLOUDY    37  27  67 NW16G24   29.88  WCI  28
$$

NJZ001-105-106-008-010-013-015-019>022-104-031000-
NEW JERSEY

CITY           SKY/WX    TMP DP  RH WIND       PRES   REMARKS
Newark/Liberty MOCLDY    42  31  64 W10       29.95S
Teterboro      CLEAR     42  27  55 NW12      29.93F
Caldwell       NOT AVBL
Somerville     NOT AVBL
Linden         DRIZZLE   42  32  68 NW10      29.96S
Sussex         NOT AVBL
Andover          N/A     36  32  85 NW8G20    29.96R WCI  30
Trenton        NOT AVBL
Millville      PTCLDY    41  31  67 W14       30.03F
Atlantic City  CLOUDY    42  28  57 W12G20    30.00F
Wrightstown    CLOUDY    43  30  60 NW10      29.96F
Toms River     CLOUDY    42  30  62 W9        29.99S
Belmar         CLOUDY   N/A N/A N/A W15       29.97S
$$

PAZ047>061-062-071-031000-
EASTERN PENNSYLVANIA

CITY           SKY/WX    TMP DP  RH WIND       PRES   REMARKS
Philadelphia   CLOUDY    43  29  57 W10       30.03S
Allentown      LGT RAIN  40  33  76 W12G20    30.00S WCI  33
Scranton       CLOUDY    38  28  67 NW13G23   29.97S WCI  30
$$

CTZ002-004>006-009-010-012-RIZ004-006-007-MAZ004-011-015-031000-
SOUTHERN NEW ENGLAND
 IN CT

CITY           SKY/WX    TMP DP  RH WIND       PRES   REMARKS
Bradley INTL   MOCLDY    39  25  57 NW15G26   29.84  WCI  31
Hartford       NOT AVBL
Danbury        NOT AVBL
Wtrbury/Oxford CLOUDY    39  27  60 W5        29.87R
Bridgeport     PTCLDY    42  28  57 W9        29.89R
Meriden        NOT AVBL
New Haven      NOT AVBL
Chester        CLOUDY    39  30  70 NW8       29.85R WCI  34
Groton         PTCLDY    44  30  57 NW15G22   29.84R
Wilimantic     PTCLDY    41  27  57 NW10G21   29.84

 IN RI

CITY           SKY/WX    TMP DP  RH WIND       PRES   REMARKS
Providence     PTCLDY    40  25  55 NW12      29.80  WCI  33
Block Island   NOT AVBL
Westerly       NOT AVBL
 IN MA

CITY           SKY/WX    TMP DP  RH WIND       PRES   REMARKS
Boston         NOT AVBL
Worcester      NOT AVBL
Westfield      NOT AVBL
Provincetown   PTCLDY    43  30  61 NW23G31   29.74F
Nantucket      NOT AVBL
$$

ANZ330-335-338-340-345-350-353-355-031000-
COASTAL MARINE OBSERVATIONS


STATION/POSITION TIME  SKY/WX   TEMP    WIND        PRES    VSBY  WAVE
                                AIR SEA DIR/SP/G                  HT/PER
                 (UTC)          (F)     (DEG/KT/KT) (MB)    (MI)  (FT/S)
NY HARB ENTRANCE 0750            46 54  270/ 23/ 29 1013.4          4/ 4
20 S FIRE ISLAND 0750            46 54  290/ 25/ 31 1012.6          8/ 6
GREAT SOUTH BAY  0815            44 45                N/A
23 SSW MONTAUK P 0850            46 56  280/ 27/ 33 1010.8          7/ 6
15 E BARNEGAT LI 0830               54                N/A           5/ 5
HUDSON CANYON    0750            49 59              1012.6         12/ 8
KINGS POINT      0842            43 48              1013.3
EXECUTION ROCKS  0845            44     280/ 16/ 21   N/A
CENTRAL LI SOUND 0815            45 51  280/ 21/ 27   N/A           4/ 5
EASTERN LI SOUND NOT AVBL
ROBBINS REEF     0842            44     300/ 18/ 22 1014.1
$$


>>>>>>>>>>>>>>>>>>>>>>>>>>>> KEY <<<<<<<<<<<<<<<<<<<<<<<<<<<
>                                                          <
>     SKY/WX - Sky Condition/Present Weather               <
>     TMP    - Temperature in Fahrenheit                   <
>     DP     - Dew Point in Fahrenheit                     <
>     RH     - Relative Humidity in Percent                <
>     WIND   - Direction (from) and Speed in MPH           <
>     PRES   - Mean Sea Level Pressure (inches of Hg)      <
>     WCI    - Wind Chill Index                            <
>     VSB    - VISIBILITY IN MILES                         <
>     HX     - HEAT INDEX                                  <
>     TC     - TEMPERATURE IN CELSIUS                      <
>     VRB    - VARIABLE WIND DIRECTION                     <
>                                                          <
>>>>>>>>>>>>>>>>>>>>>>>>>>>> KEY <<<<<<<<<<<<<<<<<<<<<<<<<<<




USA.gov is the U.S. government's official web portal to all federal, state and local government web resources and services.